[[{"header":{"parameterUnit":"m.s-1","parameterCategory":1,"la1":30.2992,"la2":30.254,"lo1":-89.0895,"lo2":-89.0443,"dy":0.0025,"dx":0.0025,"nx":19,"ny":19,"refTime":"2026-04-22T09:00:00:Z","depth":0,"parameterNumber":2,"parameterNumberName":"U-component_of_WINDS"},"data":[0,0,0,-4.3732,-4.3733,-4.3788,-4.3788,-4.3872,-4.3873,0,0,0,0,0,0,0,0,0,0,0,-4.3722,-4.3723,-4.3732,-4.3733,-4.3788,-4.3788,-4.3872,-4.3873,0,0,0,0,0,0,0,0,0,0,0,-4.3722,-4.3723,-4.3724,-4.3734,-4.3788,-4.3788,-4.3871,-4.3825,0,0,0,0,0,0,0,0,0,0,-4.377,-4.3767,-4.3723,-4.3724,-4.3734,-4.3788,-4.3788,-4.3823,-4.3828,-4.3852,0,-4.3874,0,-4.3875,-4.3879,-4.3879,0,0,0,-4.3728,-4.3763,-4.3772,-4.3724,-4.3734,-4.3788,-4.3762,-4.3826,-4.3832,-4.3859,-4.3875,-4.3878,-4.3876,-4.388,-4.388,-4.4034,-4.4035,0,0,-4.3725,-4.3736,-4.3768,-4.3776,-4.3768,-4.376,-4.3764,-4.3829,-4.3848,-4.3876,-4.388,-4.3878,-4.388,-4.3881,-4.4034,-4.4035,0,0,0,-4.372,-4.3734,-4.3741,-4.3773,-4.3782,-4.3762,-4.3766,-4.3845,-4.3846,-4.3881,-4.3879,-4.3881,-4.3882,-4.4032,-4.4034,-4.4091,0,0,0,-4.3718,-4.3731,-4.374,-4.3747,-4.3781,-4.3814,-4.378,-4.3842,-4.3849,-4.3878,-4.3881,-4.3883,-4.4031,-4.4033,-4.4087,-4.4115,0,0,0,-4.3716,-4.373,-4.3741,-4.3747,-4.3771,-4.3812,-4.3817,-4.3843,-4.3848,-4.3879,-4.3883,-4.4031,-4.4033,-4.4084,-4.4109,-4.4159,0,0,0,-4.3718,-4.379,-4.3742,-4.3823,-4.3771,-4.3848,-4.3817,-4.3874,-4.3908,-4.3881,-4.4031,-4.4034,-4.4082,-4.4106,-4.4155,-4.42,-4.4221,0,0,-4.3815,-4.3802,-4.3849,-4.3807,-4.3896,-4.3839,-4.3936,-4.3957,-4.395,-4.4007,-4.4011,-4.4088,-4.4109,-4.4158,-4.4335,-4.4351,0,0,0,-4.3883,-4.3917,-4.3938,-4.3971,-4.399,-4.4008,-4.4014,-4.4022,-4.407,-4.3981,-4.412,-4.4132,-4.416,-4.4181,-4.4195,-4.4218,-4.4045,-4.4044,-4.4044,-4.4033,-4.4023,-4.4099,-4.4096,-4.4129,-4.4136,-4.4162,-4.4175,-4.4153,-4.4187,-4.4202,-4.4311,-4.4336,-4.4346,-4.4371,-4.4227,-4.4227,-4.4228,-4.4228,-4.4173,-4.4218,-4.4191,-4.4256,-4.4245,-4.4299,-4.431,-4.4294,-4.4343,-4.4297,-4.4322,-4.427,-4.4364,-4.4385,-4.4232,-4.4231,-4.4231,-4.423,-4.423,-4.4268,-4.4288,-4.4298,-4.4347,-4.4387,-4.4382,-4.4432,-4.4421,-4.441,-4.4435,-4.445,-4.4449,-4.4445,-4.4444,-4.4444,-4.4444,-4.4445,-4.4445,-4.4445,-4.4361,-4.4371,-4.4414,-4.4443,-4.4464,-4.4491,-4.4502,-4.4523,-4.4543,-4.4531,-4.4531,-4.4507,-4.4377,-4.4343,-4.4451,-4.445,-4.4449,-4.4449,-4.4448,-4.4502,-4.4469,-4.4535,-4.4557,-4.4592,-4.4633,-4.462,-4.4664,-4.468,-4.4705,-4.4678,-4.4584,-4.4569,-4.4558,-4.453,-4.468,-4.468,-4.468,-4.468,-4.458,-4.4574,-4.464,-4.4676,-4.471,-4.4706,-4.4783,-4.4794,-4.4799,-4.4809,-4.4787,-4.475,-4.4739,-4.4731,-4.4716,-4.4689,-4.4877,-4.4877,-4.4877,-4.4666,-4.4663,-4.4729,-4.4735,-4.4763,-4.4787,-4.4859,-4.4902,-4.4903,-4.4885,-4.4817,-4.4808,-4.4748,-4.473,-4.4706,-4.4683,-4.4634,0,0]},{"header":{"parameterUnit":"m.s-1","parameterCategory":1,"la1":30.2992,"la2":30.254,"lo1":-89.0895,"lo2":-89.0443,"dy":0.0025,"dx":0.0025,"nx":19,"ny":19,"refTime":"2026-04-22T09:00:00:Z","depth":0,"parameterNumber":3,"parameterNumberName":"V-component_of_WINDS"},"data":[0,0,0,3.1887,3.1886,3.1862,3.1862,3.1825,3.1825,0,0,0,0,0,0,0,0,0,0,0,3.1891,3.1891,3.1887,3.1886,3.1862,3.1862,3.1825,3.1825,0,0,0,0,0,0,0,0,0,0,0,3.1891,3.1891,3.189,3.1886,3.1862,3.1862,3.1825,3.1845,0,0,0,0,0,0,0,0,0,0,3.1869,3.1871,3.1891,3.189,3.1886,3.1862,3.1862,3.1846,3.1844,3.1834,0,3.1825,0,3.1824,3.1822,3.1822,0,0,0,3.1888,3.1873,3.1869,3.189,3.1885,3.1862,3.1873,3.1845,3.1842,3.183,3.1824,3.1823,3.1824,3.1822,3.1821,3.1759,3.1759,0,0,3.1889,3.1885,3.1871,3.1867,3.1872,3.1874,3.1873,3.1844,3.1836,3.1824,3.1822,3.1823,3.1821,3.1821,3.176,3.1759,0,0,0,3.1892,3.1885,3.1883,3.1869,3.1865,3.1873,3.1872,3.1837,3.1837,3.1822,3.1823,3.1821,3.1821,3.176,3.1759,3.1738,0,0,0,3.1892,3.1887,3.1883,3.188,3.1865,3.1851,3.1866,3.1839,3.1835,3.1823,3.1821,3.182,3.176,3.176,3.1739,3.1727,0,0,0,3.1893,3.1887,3.1883,3.188,3.187,3.1852,3.1849,3.1838,3.1836,3.1822,3.182,3.1761,3.176,3.174,3.173,3.171,0,0,0,3.1893,3.1863,3.1883,3.185,3.187,3.1839,3.185,3.1826,3.1812,3.1821,3.176,3.1759,3.1741,3.1731,3.1711,3.1692,3.1684,0,0,3.1853,3.1858,3.1839,3.1856,3.182,3.1843,3.1804,3.1793,3.1795,3.1771,3.1769,3.1739,3.173,3.171,3.1641,3.1635,0,0,0,3.1825,3.1811,3.1803,3.179,3.1782,3.1775,3.1771,3.1768,3.1748,3.1782,3.1727,3.1721,3.171,3.1701,3.1696,3.1686,3.1755,3.1755,3.1756,3.1761,3.1767,3.1736,3.1739,3.1726,3.1724,3.1713,3.1708,3.1716,3.1702,3.1695,3.1653,3.1642,3.1638,3.1628,3.1686,3.1686,3.1686,3.1686,3.1703,3.1684,3.1698,3.1673,3.1678,3.1657,3.1653,3.166,3.164,3.1658,3.1649,3.1667,3.1631,3.1622,3.1684,3.1684,3.1685,3.1685,3.1685,3.1662,3.1654,3.1651,3.1633,3.1619,3.1622,3.1603,3.1609,3.1614,3.1604,3.1597,3.1597,3.1598,3.1601,3.16,3.16,3.16,3.16,3.16,3.1619,3.1617,3.1601,3.1592,3.1585,3.1576,3.1574,3.1566,3.1559,3.1565,3.1565,3.1574,3.1627,3.1639,3.1598,3.1598,3.1598,3.1599,3.1599,3.1557,3.1572,3.1547,3.154,3.153,3.1515,3.1524,3.1508,3.1503,3.1493,3.1505,3.1544,3.1549,3.1553,3.1563,3.1505,3.1505,3.1505,3.1505,3.1521,3.1525,3.1502,3.149,3.1479,3.1484,3.1455,3.1454,3.1454,3.1451,3.1461,3.1476,3.148,3.1483,3.1488,3.1498,3.1424,3.1424,3.1424,3.1483,3.1486,3.1461,3.1463,3.1456,3.145,3.1423,3.1408,3.1412,3.1421,3.1449,3.1452,3.1476,3.1484,3.1492,3.1501,3.152,0,0]}]]